Time,TemperatureF,DewpointF,PressureIn,WindDirection,WindDirectionDegrees,WindSpeedMPH,WindSpeedGustMPH,Humidity,HourlyPrecipIn,Conditions,Clouds,dailyrainin,SolarRadiationWatts/m^2,SoftwareType,DateUTC
2013-05-27 00:07:00,53.0,43.0,30.21,East,82,2.0,4.0,68,0.00,,,0.00,0,weatherlink.com 1.10,2013-05-27 05:07:00,
2013-05-27 00:23:00,53.0,42.0,30.20,SE,141,2.0,7.0,67,0.00,,,0.00,0,weatherlink.com 1.10,2013-05-27 05:23:00,
2013-05-27 00:38:00,53.0,41.0,30.19,East,92,5.0,7.0,65,0.00,,,0.00,0,weatherlink.com 1.10,2013-05-27 05:38:00,
2013-05-27 00:53:00,53.0,42.0,30.18,East,95,2.0,5.0,66,0.00,,,0.00,0,weatherlink.com 1.10,2013-05-27 05:53:00,
2013-05-27 01:08:00,53.0,41.0,30.18,ESE,121,1.0,8.0,65,0.00,,,0.00,0,weatherlink.com 1.10,2013-05-27 06:08:00,
2013-05-27 01:23:00,53.0,41.0,30.17,East,89,7.0,8.0,64,0.00,,,0.00,0,weatherlink.com 1.10,2013-05-27 06:23:00,
2013-05-27 01:38:00,53.2,41.0,30.17,East,94,1.0,7.0,63,0.00,,,0.00,0,weatherlink.com 1.10,2013-05-27 06:38:00,
2013-05-27 01:53:00,53.1,42.0,30.16,East,90,1.0,6.0,65,0.00,,,0.00,0,weatherlink.com 1.10,2013-05-27 06:53:00,
2013-05-27 02:08:00,52.8,42.0,30.16,ENE,78,4.0,5.0,67,0.00,,,0.00,0,weatherlink.com 1.10,2013-05-27 07:08:00,
2013-05-27 02:23:00,52.8,41.0,30.15,SE,129,1.0,8.0,64,0.00,,,0.00,0,weatherlink.com 1.10,2013-05-27 07:23:00,
2013-05-27 02:38:00,53.1,40.0,30.15,ENE,78,3.0,9.0,62,0.00,,,0.00,0,weatherlink.com 1.10,2013-05-27 07:38:00,
2013-05-27 02:53:00,53.0,40.0,30.15,ESE,110,1.0,9.0,62,0.00,,,0.00,0,weatherlink.com 1.10,2013-05-27 07:53:00,
2013-05-27 03:08:00,53.0,41.0,30.13,ENE,67,7.0,7.0,64,0.00,,,0.00,0,weatherlink.com 1.10,2013-05-27 08:08:00,
2013-05-27 03:23:00,53.1,42.0,30.12,East,96,5.0,9.0,65,0.00,,,0.00,0,weatherlink.com 1.10,2013-05-27 08:23:00,
2013-05-27 03:38:00,53.1,42.0,30.11,East,99,5.0,9.0,65,0.00,,,0.00,0,weatherlink.com 1.10,2013-05-27 08:38:00,
2013-05-27 03:53:00,53.0,42.0,30.10,East,85,5.0,9.0,67,0.00,,,0.00,0,weatherlink.com 1.10,2013-05-27 08:53:00,
2013-05-27 04:08:00,52.8,42.0,30.11,ESE,120,7.0,7.0,67,0.00,,,0.00,0,weatherlink.com 1.10,2013-05-27 09:08:00,
2013-05-27 04:23:00,52.8,42.0,30.11,East,79,1.0,5.0,68,0.00,,,0.00,0,weatherlink.com 1.10,2013-05-27 09:23:00,
2013-05-27 04:38:00,52.7,43.0,30.11,ESE,120,0.0,7.0,70,0.00,,,0.00,0,weatherlink.com 1.10,2013-05-27 09:38:00,
2013-05-27 04:53:00,52.6,43.0,30.11,ESE,110,3.0,7.0,69,0.00,,,0.00,0,weatherlink.com 1.10,2013-05-27 09:53:00,
2013-05-27 05:08:00,52.4,43.0,30.11,SE,138,5.0,7.0,70,0.00,,,0.00,0,weatherlink.com 1.10,2013-05-27 10:08:00,
2013-05-27 05:23:00,52.4,43.0,30.10,East,87,3.0,7.0,71,0.00,,,0.00,0,weatherlink.com 1.10,2013-05-27 10:23:00,
2013-05-27 05:38:00,52.4,44.0,30.09,ESE,117,1.0,6.0,72,0.00,,,0.00,5,weatherlink.com 1.10,2013-05-27 10:38:00,
2013-05-27 05:53:00,52.4,44.0,30.10,ENE,63,1.0,6.0,73,0.00,,,0.00,11,weatherlink.com 1.10,2013-05-27 10:53:00,
2013-05-27 06:08:00,52.6,44.0,30.10,East,98,0.0,6.0,73,0.00,,,0.00,9,weatherlink.com 1.10,2013-05-27 11:08:00,
2013-05-27 06:23:00,52.8,45.0,30.11,East,100,2.0,4.0,74,0.00,,,0.00,9,weatherlink.com 1.10,2013-05-27 11:23:00,
2013-05-27 06:38:00,52.8,45.0,30.11,ESE,109,0.0,5.0,74,0.00,,,0.00,9,weatherlink.com 1.10,2013-05-27 11:38:00,
2013-05-27 06:53:00,52.9,45.0,30.11,ESE,123,3.0,5.0,74,0.00,,,0.00,23,weatherlink.com 1.10,2013-05-27 11:53:00,
2013-05-27 07:08:00,53.0,45.0,30.10,East,100,3.0,7.0,74,0.00,,,0.00,44,weatherlink.com 1.10,2013-05-27 12:08:00,
2013-05-27 07:23:00,53.2,45.0,30.11,ENE,76,1.0,5.0,74,0.00,,,0.00,37,weatherlink.com 1.10,2013-05-27 12:23:00,
2013-05-27 07:38:00,53.5,45.0,30.11,East,101,1.0,3.0,74,0.00,,,0.00,47,weatherlink.com 1.10,2013-05-27 12:38:00,
2013-05-27 07:53:00,53.9,46.0,30.11,East,93,0.0,2.0,74,0.00,,,0.00,30,weatherlink.com 1.10,2013-05-27 12:53:00,
2013-05-27 08:08:00,53.3,47.0,30.11,ESE,123,0.0,2.0,80,0.01,,,0.01,47,weatherlink.com 1.10,2013-05-27 13:08:00,
2013-05-27 08:24:00,52.5,48.0,30.10,East,87,0.0,7.0,85,0.01,,,0.01,60,weatherlink.com 1.10,2013-05-27 13:24:00,
2013-05-27 08:39:00,52.9,49.0,30.10,SE,137,0.0,4.0,86,0.01,,,0.01,62,weatherlink.com 1.10,2013-05-27 13:39:00,
2013-05-27 08:54:00,53.5,50.0,30.10,SE,130,1.0,5.0,86,0.02,,,0.02,62,weatherlink.com 1.10,2013-05-27 13:54:00,
2013-05-27 09:09:00,53.7,50.0,30.09,SE,134,1.0,5.0,88,0.01,,,0.02,111,weatherlink.com 1.10,2013-05-27 14:09:00,
2013-05-27 09:24:00,54.0,51.0,30.08,SE,126,1.0,4.0,89,0.01,,,0.02,149,weatherlink.com 1.10,2013-05-27 14:24:00,
2013-05-27 09:39:00,54.4,52.0,30.07,SE,132,1.0,4.0,90,0.01,,,0.02,107,weatherlink.com 1.10,2013-05-27 14:39:00,
2013-05-27 09:54:00,54.2,52.0,30.06,SSE,150,3.0,5.0,91,0.00,,,0.02,102,weatherlink.com 1.10,2013-05-27 14:54:00,
2013-05-27 10:09:00,54.1,52.0,30.05,SE,138,3.0,6.0,91,0.00,,,0.02,81,weatherlink.com 1.10,2013-05-27 15:09:00,
2013-05-27 10:24:00,54.0,52.0,30.05,SE,126,1.0,7.0,93,0.00,,,0.02,98,weatherlink.com 1.10,2013-05-27 15:24:00,
2013-05-27 10:39:00,54.0,52.0,30.05,SE,130,2.0,5.0,93,0.00,,,0.02,84,weatherlink.com 1.10,2013-05-27 15:39:00,
2013-05-27 10:54:00,54.2,52.0,30.04,SE,132,3.0,9.0,93,0.00,,,0.02,113,weatherlink.com 1.10,2013-05-27 15:54:00,
2013-05-27 11:09:00,54.6,52.0,30.04,SE,126,3.0,9.0,91,0.00,,,0.02,225,weatherlink.com 1.10,2013-05-27 16:09:00,
2013-05-27 11:24:00,54.9,52.0,30.06,East,99,3.0,8.0,89,0.00,,,0.02,109,weatherlink.com 1.10,2013-05-27 16:24:00,
2013-05-27 11:39:00,54.6,52.0,30.06,SE,126,2.0,6.0,90,0.00,,,0.02,104,weatherlink.com 1.10,2013-05-27 16:39:00,
2013-05-27 11:54:00,54.5,52.0,30.06,SE,144,3.0,7.0,91,0.00,,,0.02,97,weatherlink.com 1.10,2013-05-27 16:54:00,
2013-05-27 12:09:00,54.5,52.0,30.06,NNE,15,2.0,8.0,91,0.00,,,0.02,113,weatherlink.com 1.10,2013-05-27 17:09:00,
2013-05-27 12:24:00,54.5,52.0,30.06,SE,129,2.0,7.0,90,0.00,,,0.02,139,weatherlink.com 1.10,2013-05-27 17:24:00,
2013-05-27 12:39:00,54.6,52.0,30.06,SE,146,4.0,5.0,91,0.00,,,0.02,104,weatherlink.com 1.10,2013-05-27 17:39:00,
2013-05-27 12:54:00,54.5,52.0,30.05,SE,130,3.0,8.0,90,0.00,,,0.02,118,weatherlink.com 1.10,2013-05-27 17:54:00,
2013-05-27 13:09:00,54.6,52.0,30.05,SE,125,4.0,11.0,90,0.00,,,0.02,169,weatherlink.com 1.10,2013-05-27 18:09:00,
2013-05-27 13:24:00,54.4,52.0,30.05,SE,131,3.0,9.0,90,0.00,,,0.02,153,weatherlink.com 1.10,2013-05-27 18:24:00,
2013-05-27 13:39:00,54.4,52.0,30.04,ENE,65,2.0,13.0,90,0.00,,,0.02,253,weatherlink.com 1.10,2013-05-27 18:39:00,
2013-05-27 13:54:00,54.5,51.0,30.04,SSE,150,4.0,13.0,89,0.00,,,0.02,209,weatherlink.com 1.10,2013-05-27 18:54:00,
2013-05-27 14:09:00,54.1,51.0,30.03,SE,129,4.0,9.0,90,0.00,,,0.02,156,weatherlink.com 1.10,2013-05-27 19:09:00,
2013-05-27 14:24:00,53.7,51.0,30.02,ESE,117,3.0,10.0,90,0.00,,,0.02,174,weatherlink.com 1.10,2013-05-27 19:24:00,
2013-05-27 14:39:00,53.6,51.0,30.02,SE,124,3.0,11.0,90,0.00,,,0.02,186,weatherlink.com 1.10,2013-05-27 19:39:00,
2013-05-27 14:54:00,53.5,51.0,30.01,SE,132,7.0,14.0,90,0.00,,,0.02,181,weatherlink.com 1.10,2013-05-27 19:54:00,
2013-05-27 15:09:00,53.2,50.0,30.01,East,96,3.0,14.0,90,0.00,,,0.02,211,weatherlink.com 1.10,2013-05-27 20:09:00,
2013-05-27 15:24:00,53.2,50.0,30.02,ENE,71,5.0,14.0,90,0.00,,,0.02,149,weatherlink.com 1.10,2013-05-27 20:24:00,
2013-05-27 15:39:00,53.0,51.0,30.01,SE,140,3.0,10.0,91,0.00,,,0.02,141,weatherlink.com 1.10,2013-05-27 20:39:00,
2013-05-27 15:54:00,52.7,50.0,30.00,SE,139,3.0,10.0,90,0.00,,,0.02,155,weatherlink.com 1.10,2013-05-27 20:54:00,
2013-05-27 16:09:00,52.5,50.0,29.99,SE,129,3.0,12.0,91,0.00,,,0.02,128,weatherlink.com 1.10,2013-05-27 21:09:00,
2013-05-27 16:24:00,52.5,50.0,29.99,ESE,121,4.0,9.0,90,0.00,,,0.02,93,weatherlink.com 1.10,2013-05-27 21:24:00,
2013-05-27 16:39:00,52.1,50.0,30.00,SE,146,2.0,12.0,91,0.00,,,0.02,54,weatherlink.com 1.10,2013-05-27 21:39:00,
2013-05-27 16:54:00,51.7,50.0,30.00,ESE,113,5.0,10.0,92,0.00,,,0.02,44,weatherlink.com 1.10,2013-05-27 21:54:00,
2013-05-27 17:09:00,51.4,49.0,30.00,SE,137,2.0,13.0,92,0.00,,,0.02,39,weatherlink.com 1.10,2013-05-27 22:09:00,
2013-05-27 17:24:00,51.3,49.0,30.00,SSE,157,1.0,8.0,93,0.00,,,0.02,26,weatherlink.com 1.10,2013-05-27 22:24:00,
2013-05-27 17:39:00,51.1,49.0,29.99,East,80,8.0,8.0,93,0.00,,,0.02,30,weatherlink.com 1.10,2013-05-27 22:39:00,
2013-05-27 17:54:00,50.9,49.0,29.99,ESE,121,4.0,13.0,94,0.00,,,0.02,26,weatherlink.com 1.10,2013-05-27 22:54:00,
2013-05-27 18:10:00,50.7,49.0,29.98,ESE,120,2.0,8.0,95,0.00,,,0.02,19,weatherlink.com 1.10,2013-05-27 23:10:00,
2013-05-27 18:25:00,50.5,49.0,29.98,ESE,109,2.0,9.0,95,0.00,,,0.02,11,weatherlink.com 1.10,2013-05-27 23:25:00,
2013-05-27 18:40:00,50.4,49.0,29.97,ESE,109,3.0,10.0,96,0.00,,,0.02,9,weatherlink.com 1.10,2013-05-27 23:40:00,
2013-05-27 18:55:00,50.3,49.0,29.96,ESE,105,2.0,9.0,96,0.01,,,0.03,9,weatherlink.com 1.10,2013-05-27 23:55:00,
2013-05-27 19:10:00,50.2,49.0,29.97,SE,127,1.0,5.0,96,0.01,,,0.03,5,weatherlink.com 1.10,2013-05-28 00:10:00,
2013-05-27 19:25:00,50.1,49.0,29.97,East,95,3.0,9.0,96,0.05,,,0.07,9,weatherlink.com 1.10,2013-05-28 00:25:00,
2013-05-27 19:40:00,50.1,49.0,29.97,ESE,105,2.0,8.0,97,0.05,,,0.07,5,weatherlink.com 1.10,2013-05-28 00:40:00,
2013-05-27 19:55:00,50.1,49.0,29.97,ESE,103,5.0,10.0,97,0.04,,,0.07,0,weatherlink.com 1.10,2013-05-28 00:55:00,
2013-05-27 20:10:00,50.1,49.0,29.96,East,101,5.0,13.0,97,0.03,,,0.07,0,weatherlink.com 1.10,2013-05-28 01:10:00,
2013-05-27 20:25:00,50.2,49.0,29.96,East,94,6.0,9.0,97,0.00,,,0.07,0,weatherlink.com 1.10,2013-05-28 01:25:00,
2013-05-27 20:40:00,50.2,49.0,29.95,East,82,2.0,10.0,97,0.00,,,0.07,0,weatherlink.com 1.10,2013-05-28 01:40:00,
2013-05-27 20:55:00,50.2,49.0,29.95,East,87,3.0,9.0,97,0.00,,,0.07,0,weatherlink.com 1.10,2013-05-28 01:55:00,
2013-05-27 21:10:00,50.2,49.0,29.95,East,101,2.0,7.0,97,0.00,,,0.07,0,weatherlink.com 1.10,2013-05-28 02:10:00,
2013-05-27 21:25:00,50.1,49.0,29.94,SE,128,5.0,10.0,97,0.00,,,0.07,0,weatherlink.com 1.10,2013-05-28 02:25:00,
2013-05-27 21:40:00,50.1,49.0,29.95,ESE,112,2.0,10.0,97,0.00,,,0.07,0,weatherlink.com 1.10,2013-05-28 02:40:00,
2013-05-27 21:55:00,50.2,49.0,29.95,SE,126,2.0,8.0,97,0.00,,,0.07,0,weatherlink.com 1.10,2013-05-28 02:55:00,
2013-05-27 22:10:00,50.2,49.0,29.95,SE,128,0.0,3.0,97,0.00,,,0.07,0,weatherlink.com 1.10,2013-05-28 03:10:00,
2013-05-27 22:25:00,50.3,50.0,29.95,East,96,0.0,1.0,97,0.00,,,0.07,0,weatherlink.com 1.10,2013-05-28 03:25:00,
2013-05-27 22:40:00,50.3,50.0,29.96,SE,134,1.0,2.0,97,0.00,,,0.07,0,weatherlink.com 1.10,2013-05-28 03:40:00,
2013-05-27 23:09:00,50.4,50.0,29.95,SE,136,0.0,2.0,98,0.00,,,0.07,0,weatherlink.com 1.10,2013-05-28 04:09:00,
2013-05-27 23:24:00,50.4,50.0,29.95,SE,136,0.0,3.0,98,0.00,,,0.07,0,weatherlink.com 1.10,2013-05-28 04:24:00,
2013-05-27 23:39:00,50.3,50.0,29.94,SE,138,0.0,2.0,97,0.00,,,0.07,0,weatherlink.com 1.10,2013-05-28 04:39:00,
2013-05-27 23:55:00,50.2,49.0,29.94,SE,125,0.0,3.0,97,0.00,,,0.07,0,weatherlink.com 1.10,2013-05-28 04:55:00,